�������r�C�����j�^�v���󋵏��
Date,Time,5�C6���@���p�r�C��,����,����(m/s)
2021/03/25,00:00,3.9,��,2.8
2021/03/25,00:10,4.1,��,2.8
2021/03/25,00:20,3.8,��,4.2
2021/03/25,00:30,4.2,��,4.7
2021/03/25,00:40,4.0,��,6.5
2021/03/25,00:50,3.9,��,6.1
2021/03/25,01:00,4.0,��쐼,4.3
2021/03/25,01:10,3.8,��쐼,3.5
2021/03/25,01:20,4.1,�쐼,3.2
2021/03/25,01:30,3.9,�쐼,2.8
2021/03/25,01:40,4.0,���쐼,2.8
2021/03/25,01:50,4.1,�쐼,3.9
2021/03/25,02:00,4.0,��쐼,2.9
2021/03/25,02:10,4.0,��쐼,2.3
2021/03/25,02:20,3.9,��,2.6
2021/03/25,02:30,4.0,��,2.6
2021/03/25,02:40,4.0,��쓌,3.2
2021/03/25,02:50,4.0,��,4.1
2021/03/25,03:00,4.0,��,4.7
2021/03/25,03:10,4.0,��,4.9
2021/03/25,03:20,3.8,��,4.9
2021/03/25,03:30,3.8,��,4.4
2021/03/25,03:40,4.1,��,4.6
2021/03/25,03:50,4.0,��,5.4
2021/03/25,04:00,4.0,��,5.2
2021/03/25,04:10,3.9,��,5.2
2021/03/25,04:20,4.0,��,4.8
2021/03/25,04:30,3.8,��쐼,3.7
2021/03/25,04:40,3.9,��,3.7
2021/03/25,04:50,3.9,��쐼,4.6
2021/03/25,05:00,4.0,��,4.3
2021/03/25,05:10,4.1,��,4.0
2021/03/25,05:20,4.1,��,4.0
2021/03/25,05:30,4.1,��,3.9
2021/03/25,05:40,3.9,��쓌,3.4
2021/03/25,05:50,3.9,��,1.9
2021/03/25,06:00,4.0,��쐼,2.5
2021/03/25,06:10,3.8,��쐼,4.0
2021/03/25,06:20,4.1,��쐼,3.4
2021/03/25,06:30,4.1,��쐼,2.8
2021/03/25,06:40,4.1,�쐼,2.3
2021/03/25,06:50,3.9,��,1.9
2021/03/25,07:00,4.1,�k��,3.5
2021/03/25,07:10,4.1,�k��,2.5
2021/03/25,07:20,4.1,�k�k��,3.9
2021/03/25,07:30,4.0,�k�k��,3.1
2021/03/25,07:40,3.9,�k�k��,3.3
2021/03/25,07:50,4.0,�k��,3.4
2021/03/25,08:00,3.8,�k��,3.6
2021/03/25,08:10,4.1,�k��,3.2
2021/03/25,08:20,4.0,�k��,1.2
2021/03/25,08:30,3.9,�k,0.8
2021/03/25,08:40,4.0,-,CALM
2021/03/25,08:50,3.9,�k,0.6
2021/03/25,09:00,3.9,�k�k��,0.8
2021/03/25,09:10,4.0,-,CALM
2021/03/25,09:20,3.8,-,CALM
2021/03/25,09:30,4.1,�쓌,1.5
2021/03/25,09:40,3.9,��쓌,2.0
2021/03/25,09:50,3.9,��쓌,2.8
2021/03/25,10:00,4.0,��쓌,3.1
2021/03/25,10:10,3.8,��,2.9
2021/03/25,10:20,4.1,��쓌,3.8
2021/03/25,10:30,4.0,��쓌,5.0
2021/03/25,10:40,4.2,��쓌,5.9
2021/03/25,10:50,4.2,��,7.2
2021/03/25,11:00,3.9,��,6.4
2021/03/25,11:10,3.9,��,8.2
2021/03/25,11:20,3.9,��,9.7
2021/03/25,11:30,4.0,��쓌,11.6
2021/03/25,11:40,4.1,��쓌,11.1
2021/03/25,11:50,4.0,��쓌,10.7
2021/03/25,12:00,4.2,��쓌,10.3
2021/03/25,12:10,3.9,��쓌,10.5
2021/03/25,12:20,4.0,��쓌,10.9
2021/03/25,12:30,3.9,��쓌,8.2
2021/03/25,12:40,3.9,��,7.2
2021/03/25,12:50,3.9,��,8.8
2021/03/25,13:00,4.1,��,8.7
2021/03/25,13:10,3.9,��,8.2
2021/03/25,13:20,3.9,��,8.1
2021/03/25,13:30,3.8,��,9.2
2021/03/25,13:40,3.9,��,12.2
2021/03/25,13:50,4.0,��,10.8
2021/03/25,14:00,4.0,��,11.3
2021/03/25,14:10,4.0,��,11.3
2021/03/25,14:20,3.8,��,11.8
2021/03/25,14:30,4.0,��,13.0
2021/03/25,14:40,4.0,��,10.8
2021/03/25,14:50,3.9,��,10.8
2021/03/25,15:00,4.0,��,10.5
2021/03/25,15:10,3.9,��,11.0
2021/03/25,15:20,3.8,��,10.6
2021/03/25,15:30,4.0,��,8.6
2021/03/25,15:40,3.9,��,8.9
2021/03/25,15:50,3.7,��,8.0
2021/03/25,16:00,4.0,��,9.1
2021/03/25,16:10,4.1,��,9.1
2021/03/25,16:20,4.1,��,9.3
2021/03/25,16:30,4.1,��,9.5
2021/03/25,16:40,3.9,��,9.4
2021/03/25,16:50,3.9,��,8.8
2021/03/25,17:00,3.8,��,7.3
2021/03/25,17:10,3.9,��,7.3
2021/03/25,17:20,4.0,��,7.6
2021/03/25,17:30,4.0,��,8.2
2021/03/25,17:40,4.0,��,8.2
2021/03/25,17:50,3.9,��,8.5
2021/03/25,18:00,4.0,��,8.2
2021/03/25,18:10,4.0,��,6.5
2021/03/25,18:20,4.0,�k�k��,1.7
2021/03/25,18:30,4.0,�k,3.6
2021/03/25,18:40,3.8,�k�k��,2.5
2021/03/25,18:50,4.0,�k,3.5
2021/03/25,19:00,3.9,�k,2.9
2021/03/25,19:10,4.0,�k,3.0
2021/03/25,19:20,4.0,�k�k��,2.0
2021/03/25,19:30,4.0,�k,1.5
2021/03/25,19:40,4.1,���k��,2.0
2021/03/25,19:50,4.1,��,2.9
2021/03/25,20:00,3.9,��,2.5
2021/03/25,20:10,3.9,��,4.6
2021/03/25,20:20,4.2,��,5.9
2021/03/25,20:30,4.1,���k��,6.8
2021/03/25,20:40,3.9,�k��,7.0
2021/03/25,20:50,4.0,�k��,5.1
2021/03/25,21:00,3.8,�k��,4.8
2021/03/25,21:10,3.8,���k��,5.9
2021/03/25,21:20,4.0,���k��,5.9
2021/03/25,21:30,3.8,���k��,6.5
2021/03/25,21:40,4.0,���k��,4.9
2021/03/25,21:50,3.8,���k��,3.5
2021/03/25,22:00,4.1,���k��,3.2
2021/03/25,22:10,4.0,���k��,3.6
2021/03/25,22:20,3.9,�k�k��,2.9
2021/03/25,22:30,3.9,�k�k��,4.0
2021/03/25,22:40,3.9,���k��,3.8
2021/03/25,22:50,4.0,���k��,4.4
2021/03/25,23:00,4.0,���k��,3.9
2021/03/25,23:10,4.1,�k��,3.3
2021/03/25,23:20,4.0,�k��,3.9
2021/03/25,23:30,4.0,�k�k��,3.3
2021/03/25,23:40,4.1,�k��,3.6
2021/03/25,23:50,4.0,�k�k��,3.8
